| time (UTC) | temp C | wind direction | speed KPH | gust KPH | rain 1hr cm | rain 24hr cm | rain mn cm | humidity % | barometer mb |
| 20260508025732 | 12 | 0 | 0.0 | 0.0 | 0.00 | 0.00 | 1.40 | 97 | 1013.0 |
| 20260508025231 | 12 | 0 | 0.0 | 0.0 | 0.00 | 0.00 | 1.40 | 97 | 1013.0 |
| 20260508024733 | 12 | 0 | 0.0 | 0.0 | 0.00 | 0.00 | 1.40 | 97 | 1013.0 |
| 20260508024231 | 12 | 0 | 0.0 | 0.0 | 0.00 | 0.00 | 1.40 | 97 | 1013.0 |
| 20260508023731 | 12 | 0 | 0.0 | 0.0 | 0.00 | 0.00 | 1.40 | 97 | 1013.0 |
| 20260508023231 | 12 | 0 | 0.0 | 0.0 | 0.00 | 0.00 | 1.40 | 97 | 1013.0 |
| 20260508022732 | 12 | 220 | 0.0 | 0.0 | 0.00 | 0.00 | 1.40 | 97 | 1013.0 |
| 20260508022232 | 12 | 0 | 0.0 | 0.0 | 0.00 | 0.00 | 1.40 | 97 | 1013.0 |
| 20260508021731 | 12 | 0 | 0.0 | 0.0 | 0.00 | 0.00 | 1.40 | 97 | 1013.0 |
| 20260508021232 | 12 | 0 | 0.0 | 0.0 | 0.00 | 0.00 | 1.40 | 97 | 1013.0 |
| 20260508020732 | 12 | 0 | 0.0 | 0.0 | 0.00 | 0.00 | 1.40 | 97 | 1013.0 |
| 20260508020232 | 12 | 0 | 0.0 | 0.0 | 0.00 | 0.00 | 1.40 | 97 | 1013.0 |
| 20260508015732 | 12 | 0 | 0.0 | 0.0 | 0.00 | 0.00 | 1.40 | 97 | 1013.0 |
| 20260508015232 | 12 | 0 | 0.0 | 0.0 | 0.00 | 0.00 | 1.40 | 97 | 1013.0 |
| 20260508014733 | 12 | 0 | 0.0 | 0.0 | 0.00 | 0.00 | 1.40 | 96 | 1013.0 |
| 20260508014232 | 12 | 0 | 0.0 | 0.0 | 0.00 | 0.00 | 1.40 | 96 | 1012.0 |
| 20260508013731 | 12 | 0 | 0.0 | 0.0 | 0.00 | 0.00 | 1.40 | 96 | 1012.0 |
| 20260508013231 | 12 | 274 | 0.0 | 1.6 | 0.00 | 0.00 | 1.40 | 96 | 1012.0 |
| 20260508012732 | 12 | 0 | 0.0 | 0.0 | 0.00 | 0.00 | 1.40 | 96 | 1012.0 |
| 20260508012232 | 12 | 42 | 0.0 | 1.6 | 0.00 | 0.00 | 1.40 | 96 | 1012.0 |
| 20260508011732 | 12 | 0 | 0.0 | 0.0 | 0.00 | 0.00 | 1.40 | 96 | 1012.0 |
| 20260508011231 | 12 | 0 | 0.0 | 0.0 | 0.00 | 0.00 | 1.40 | 96 | 1012.0 |
| 20260508010735 | 12 | 0 | 0.0 | 0.0 | 0.00 | 0.00 | 1.40 | 96 | 1012.0 |
| 20260508010232 | 12 | 56 | 0.0 | 0.0 | 0.00 | 0.00 | 1.40 | 95 | 1012.0 |
| 20260508005732 | 12 | 0 | 0.0 | 0.0 | 0.00 | 0.00 | 1.40 | 95 | 1012.0 |
| 20260508005231 | 12 | 0 | 0.0 | 0.0 | 0.00 | 0.00 | 1.40 | 95 | 1012.0 |
| 20260508004731 | 12 | 0 | 0.0 | 0.0 | 0.00 | 0.00 | 1.40 | 95 | 1012.0 |
| 20260508004232 | 12 | 277 | 0.0 | 1.6 | 0.00 | 0.00 | 1.40 | 95 | 1012.0 |
| 20260508003732 | 12 | 0 | 0.0 | 0.0 | 0.00 | 0.00 | 1.40 | 95 | 1012.0 |
| 20260508003232 | 12 | 0 | 0.0 | 0.0 | 0.00 | 0.00 | 1.40 | 95 | 1012.0 |
| 20260508002732 | 12 | 0 | 0.0 | 0.0 | 0.00 | 0.00 | 1.40 | 95 | 1012.0 |
| 20260508002232 | 12 | 0 | 0.0 | 0.0 | 0.00 | 0.00 | 1.40 | 95 | 1012.0 |
| 20260508001732 | 12 | 292 | 3.2 | 3.2 | 0.00 | 0.00 | 1.40 | 95 | 1012.0 |
| 20260508001232 | 12 | 0 | 0.0 | 0.0 | 0.00 | 0.00 | 1.40 | 95 | 1012.0 |
| 20260508000732 | 13 | 57 | 0.0 | 3.2 | 0.00 | 0.00 | 1.40 | 95 | 1011.0 |
| 20260508000234 | 13 | 0 | 0.0 | 0.0 | 0.00 | 0.00 | 1.40 | 94 | 1011.0 |
| 20260507235731 | 13 | 0 | 0.0 | 0.0 | 0.00 | 0.00 | 1.40 | 94 | 1011.0 |
| 20260507235232 | 13 | 0 | 0.0 | 0.0 | 0.00 | 0.00 | 1.40 | 94 | 1012.0 |
| 20260507234732 | 12 | 0 | 0.0 | 0.0 | 0.00 | 0.00 | 1.40 | 94 | 1012.0 |
| 20260507234232 | 13 | 307 | 1.6 | 3.2 | 0.00 | 0.00 | 1.40 | 95 | 1011.0 |
| 20260507233731 | 13 | 0 | 0.0 | 0.0 | 0.00 | 0.00 | 1.40 | 95 | 1011.0 |
| 20260507233231 | 13 | 295 | 0.0 | 1.6 | 0.00 | 0.00 | 1.40 | 94 | 1011.0 |
| 20260507232731 | 13 | 0 | 0.0 | 0.0 | 0.00 | 0.00 | 1.40 | 95 | 1011.0 |
| 20260507232231 | 13 | 320 | 1.6 | 1.6 | 0.00 | 0.00 | 1.40 | 94 | 1011.0 |
| 20260507231731 | 13 | 0 | 0.0 | 0.0 | 0.00 | 0.00 | 1.40 | 94 | 1011.0 |
| 20260507231231 | 13 | 351 | 1.6 | 1.6 | 0.00 | 0.00 | 1.40 | 94 | 1011.0 |
| 20260507230732 | 13 | 79 | 0.0 | 0.0 | 0.00 | 0.00 | 1.40 | 94 | 1011.0 |
| 20260507230232 | 13 | 315 | 1.6 | 3.2 | 0.00 | 0.00 | 1.40 | 94 | 1011.0 |
| 20260507225732 | 13 | 10 | 0.0 | 1.6 | 0.00 | 0.00 | 1.40 | 93 | 1011.0 |
| 20260507225231 | 13 | 174 | 0.0 | 0.0 | 0.05 | 0.00 | 1.37 | 93 | 1011.0 |
| 20260507224732 | 13 | 57 | 1.6 | 3.2 | 0.20 | 0.00 | 1.37 | 91 | 1011.0 |
| 20260507224231 | 13 | 60 | 3.2 | 4.8 | 0.18 | 0.00 | 1.35 | 91 | 1010.0 |
| 20260507223731 | 13 | 139 | 6.4 | 9.7 | 0.00 | 0.00 | 1.35 | 90 | 1010.0 |
| 20260507223231 | 13 | 100 | 3.2 | 6.4 | 0.00 | 0.00 | 1.35 | 91 | 1010.0 |
| 20260507222731 | 13 | 90 | 6.4 | 8.0 | 0.00 | 0.00 | 1.35 | 91 | 1010.0 |
| 20260507222232 | 13 | 87 | 6.4 | 8.0 | 0.00 | 0.00 | 1.35 | 91 | 1011.0 |
| 20260507221731 | 13 | 31 | 4.8 | 6.4 | 0.00 | 0.00 | 1.35 | 91 | 1011.0 |
| 20260507221232 | 13 | 85 | 4.8 | 6.4 | 0.00 | 0.00 | 1.35 | 91 | 1011.0 |
| 20260507220731 | 13 | 118 | 1.6 | 4.8 | 0.00 | 0.00 | 1.35 | 92 | 1011.0 |
| 20260507220232 | 13 | 25 | 3.2 | 6.4 | 0.00 | 0.00 | 1.35 | 92 | 1011.0 |
| 20260507215731 | 13 | 312 | 0.0 | 1.6 | 0.00 | 0.00 | 1.35 | 92 | 1011.0 |
| 20260507215231 | 13 | 74 | 1.6 | 3.2 | 0.00 | 0.00 | 1.35 | 91 | 1011.0 |
| 20260507214731 | 13 | 38 | 6.4 | 8.0 | 0.00 | 0.00 | 1.35 | 91 | 1011.0 |
| 20260507214232 | 13 | 75 | 3.2 | 6.4 | 0.00 | 0.00 | 1.35 | 92 | 1011.0 |
| 20260507213732 | 13 | 55 | 8.0 | 12.9 | 0.00 | 0.00 | 1.35 | 92 | 1011.0 |
| 20260507213231 | 13 | 20 | 1.6 | 1.6 | 0.00 | 0.00 | 1.35 | 93 | 1011.0 |
| 20260507212733 | 13 | 50 | 1.6 | 4.8 | 0.00 | 0.00 | 1.35 | 93 | 1011.0 |
| 20260507212231 | 13 | 73 | 4.8 | 8.0 | 0.00 | 0.00 | 1.35 | 93 | 1011.0 |
| 20260507211732 | 13 | 86 | 3.2 | 8.0 | 0.00 | 0.00 | 1.35 | 93 | 1011.0 |
| 20260507211231 | 13 | 39 | 1.6 | 6.4 | 0.00 | 0.00 | 1.35 | 93 | 1011.0 |
| 20260507210732 | 13 | 338 | 3.2 | 6.4 | 0.00 | 0.00 | 1.35 | 93 | 1011.0 |
| 20260507210232 | 13 | 89 | 1.6 | 4.8 | 0.00 | 0.00 | 1.35 | 93 | 1010.0 |
| 20260507205731 | 13 | 84 | 3.2 | 6.4 | 0.00 | 0.00 | 1.35 | 93 | 1010.0 |
| 20260507205232 | 13 | 9 | 1.6 | 3.2 | 0.00 | 0.00 | 1.35 | 93 | 1011.0 |
| 20260507204733 | 13 | 60 | 4.8 | 6.4 | 0.00 | 0.00 | 1.35 | 92 | 1010.0 |
| 20260507204232 | 13 | 356 | 1.6 | 4.8 | 0.00 | 0.00 | 1.35 | 93 | 1010.0 |
| 20260507203732 | 13 | 38 | 4.8 | 9.7 | 0.00 | 0.00 | 1.35 | 92 | 1010.0 |
| 20260507203232 | 13 | 55 | 3.2 | 6.4 | 0.00 | 0.00 | 1.35 | 92 | 1010.0 |
| 20260507202731 | 13 | 85 | 4.8 | 8.0 | 0.00 | 0.00 | 1.35 | 92 | 1010.0 |
| 20260507202231 | 13 | 331 | 3.2 | 4.8 | 0.00 | 0.00 | 1.35 | 94 | 1010.0 |
| 20260507201732 | 13 | 173 | 3.2 | 6.4 | 0.00 | 0.00 | 1.35 | 94 | 1010.0 |
| 20260507201232 | 13 | 315 | 3.2 | 9.7 | 0.00 | 0.00 | 1.35 | 94 | 1010.0 |
| 20260507200732 | 13 | 74 | 3.2 | 4.8 | 0.00 | 0.00 | 1.35 | 94 | 1010.0 |
| 20260507200233 | 13 | 12 | 3.2 | 11.3 | 0.00 | 0.00 | 1.35 | 94 | 1010.0 |
| 20260507195732 | 13 | 47 | 6.4 | 11.3 | 0.00 | 0.00 | 1.35 | 94 | 1010.0 |
| 20260507195231 | 13 | 56 | 6.4 | 9.7 | 0.00 | 0.00 | 1.35 | 94 | 1010.0 |
| 20260507194731 | 13 | 144 | 3.2 | 8.0 | 0.00 | 0.00 | 1.35 | 94 | 1010.0 |
| 20260507194234 | 13 | 74 | 4.8 | 6.4 | 0.00 | 0.00 | 1.35 | 95 | 1010.0 |
| 20260507193732 | 13 | 119 | 3.2 | 6.4 | 0.00 | 0.00 | 1.35 | 95 | 1010.0 |
| 20260507193232 | 13 | 89 | 8.0 | 9.7 | 0.00 | 0.00 | 1.35 | 95 | 1010.0 |
| 20260507192732 | 13 | 60 | 8.0 | 14.5 | 0.00 | 0.00 | 1.35 | 95 | 1010.0 |
| 20260507192231 | 13 | 40 | 4.8 | 9.7 | 0.00 | 0.00 | 1.35 | 95 | 1010.0 |
| 20260507191733 | 13 | 36 | 4.8 | 11.3 | 0.00 | 0.00 | 1.32 | 95 | 1010.0 |
| 20260507191231 | 13 | 80 | 8.0 | 14.5 | 0.00 | 0.00 | 1.32 | 95 | 1010.0 |
| 20260507190732 | 13 | 79 | 3.2 | 4.8 | 0.00 | 0.00 | 1.32 | 95 | 1010.0 |
| 20260507190234 | 13 | 312 | 3.2 | 4.8 | 0.00 | 0.00 | 1.32 | 95 | 1010.0 |
| 20260507185732 | 13 | 62 | 6.4 | 9.7 | 0.00 | 0.00 | 1.32 | 95 | 1010.0 |
| 20260507185232 | 13 | 4 | 4.8 | 8.0 | 0.00 | 0.00 | 1.32 | 95 | 1010.0 |
| 20260507184731 | 13 | 21 | 4.8 | 8.0 | 0.00 | 0.00 | 1.32 | 96 | 1010.0 |
| 20260507184231 | 13 | 39 | 1.6 | 3.2 | 0.08 | 0.00 | 1.32 | 96 | 1010.0 |
| 20260507183731 | 13 | 41 | 4.8 | 8.0 | 0.00 | 0.00 | 1.32 | 96 | 1010.0 |
| 20260507183234 | 13 | 76 | 4.8 | 4.8 | 0.00 | 0.00 | 1.32 | 96 | 1010.0 |
| 20260507182732 | 13 | 50 | 4.8 | 4.8 | 0.00 | 0.00 | 1.32 | 96 | 1010.0 |
| 20260507182232 | 13 | 24 | 1.6 | 1.6 | 0.00 | 0.00 | 1.32 | 96 | 1010.0 |
| 20260507181733 | 13 | 348 | 0.0 | 1.6 | 0.00 | 0.00 | 1.32 | 95 | 1010.0 |
| 20260507181232 | 13 | 25 | 8.0 | 11.3 | 0.00 | 0.00 | 1.32 | 95 | 1010.0 |
| 20260507180736 | 13 | 113 | 3.2 | 4.8 | 0.00 | 0.00 | 1.32 | 96 | 1010.0 |
| 20260507180232 | 13 | 0 | 4.8 | 6.4 | 0.00 | 0.00 | 1.32 | 96 | 1010.0 |
| 20260507175734 | 13 | 314 | 3.2 | 6.4 | 0.00 | 0.00 | 1.35 | 96 | 1010.0 |
| 20260507175231 | 13 | 99 | 3.2 | 9.7 | 0.00 | 0.00 | 1.35 | 95 | 1010.0 |
| 20260507174732 | 13 | 37 | 6.4 | 9.7 | 0.00 | 0.00 | 1.35 | 95 | 1010.0 |
| 20260507174232 | 13 | 38 | 3.2 | 6.4 | 0.00 | 0.00 | 1.35 | 95 | 1010.0 |
| 20260507173732 | 13 | 65 | 6.4 | 9.7 | 0.00 | 0.00 | 1.35 | 95 | 1010.0 |
| 20260507173231 | 13 | 75 | 4.8 | 6.4 | 0.00 | 0.00 | 1.35 | 95 | 1011.0 |
| 20260507172732 | 13 | 40 | 6.4 | 11.3 | 0.00 | 0.00 | 1.35 | 95 | 1011.0 |
| 20260507172232 | 14 | 350 | 3.2 | 6.4 | 0.00 | 0.00 | 1.37 | 95 | 1010.0 |
| 20260507171733 | 14 | 45 | 3.2 | 8.0 | 0.00 | 0.00 | 1.37 | 95 | 1010.0 |
| 20260507171232 | 14 | 63 | 9.7 | 9.7 | 0.00 | 0.00 | 1.37 | 96 | 1010.0 |
| 20260507170733 | 14 | 311 | 3.2 | 6.4 | 0.00 | 0.00 | 1.37 | 96 | 1010.0 |
| 20260507170234 | 14 | 83 | 4.8 | 8.0 | 0.00 | 0.00 | 1.35 | 96 | 1009.0 |
| 20260507165732 | 14 | 61 | 4.8 | 8.0 | 0.00 | 0.00 | 1.37 | 96 | 1010.0 |
| 20260507165234 | 15 | 227 | 9.7 | 12.9 | 0.03 | 0.00 | 1.37 | 96 | 1009.0 |
| 20260507164731 | 15 | 228 | 8.0 | 11.3 | 0.00 | 0.00 | 1.37 | 96 | 1009.0 |
| 20260507164232 | 15 | 227 | 9.7 | 12.9 | 0.05 | 0.00 | 1.37 | 95 | 1010.0 |
| 20260507163734 | 16 | 231 | 6.4 | 12.9 | 0.23 | 0.00 | 1.37 | 96 | 1010.0 |
| 20260507163234 | 17 | 225 | 9.7 | 17.7 | 0.48 | 0.00 | 1.30 | 95 | 1009.0 |
| 20260507162731 | 18 | 58 | 8.0 | 12.9 | 0.66 | 0.00 | 1.27 | 93 | 1009.0 |
| 20260507162233 | 19 | 44 | 4.8 | 8.0 | 0.08 | 0.00 | 1.27 | 96 | 1010.0 |
| 20260507161732 | 19 | 0 | 0.0 | 0.0 | 0.08 | 0.00 | 1.24 | 96 | 1010.0 |
| 20260507161231 | 20 | 222 | 0.0 | 1.6 | 0.05 | 0.00 | 1.24 | 96 | 1010.0 |
| 20260507160731 | 19 | 0 | 0.0 | 0.0 | 0.10 | 0.00 | 1.22 | 96 | 1010.0 |
| 20260507160235 | 19 | 54 | 1.6 | 1.6 | 0.03 | 0.00 | 1.22 | 96 | 1010.0 |
| 20260507155732 | 19 | 0 | 0.0 | 0.0 | 0.05 | 0.00 | 1.22 | 96 | 1010.0 |
| 20260507155233 | 19 | 0 | 0.0 | 0.0 | 0.18 | 0.00 | 1.19 | 97 | 1010.0 |
| 20260507154733 | 20 | 288 | 0.0 | 0.0 | 0.05 | 0.00 | 1.17 | 97 | 1010.0 |
| 20260507154232 | 19 | 0 | 0.0 | 0.0 | 0.00 | 0.00 | 1.17 | 97 | 1010.0 |
| 20260507153732 | 19 | 0 | 0.0 | 0.0 | 0.00 | 0.00 | 1.17 | 97 | 1010.0 |
| 20260507153232 | 19 | 89 | 0.0 | 0.0 | 0.00 | 0.00 | 1.14 | 97 | 1010.0 |
| 20260507152734 | 19 | 0 | 0.0 | 0.0 | 0.23 | 0.00 | 1.14 | 97 | 1010.0 |
| 20260507152233 | 19 | 51 | 1.6 | 3.2 | 0.13 | 0.00 | 1.17 | 97 | 1010.0 |
| 20260507151735 | 19 | 0 | 0.0 | 0.0 | 0.20 | 0.00 | 1.14 | 97 | 1010.0 |
| 20260507151234 | 19 | 0 | 0.0 | 0.0 | 0.13 | 0.00 | 1.12 | 97 | 1010.0 |
| 20260507150734 | 19 | 0 | 0.0 | 0.0 | 0.10 | 0.00 | 1.12 | 97 | 1010.0 |
| 20260507150234 | 19 | 0 | 0.0 | 0.0 | 0.08 | 0.00 | 1.09 | 97 | 1010.0 |
| 20260507145734 | 19 | 0 | 0.0 | 0.0 | 0.03 | 0.00 | 1.12 | 97 | 1010.0 |
| 20260507145232 | 19 | 0 | 0.0 | 0.0 | 0.05 | 0.00 | 1.12 | 97 | 1010.0 |
| 20260507144734 | 19 | 0 | 0.0 | 0.0 | 0.03 | 0.00 | 1.07 | 97 | 1010.0 |
| 20260507144234 | 19 | 58 | 0.0 | 0.0 | 0.08 | 0.00 | 1.07 | 97 | 1010.0 |
| 20260507143733 | 19 | 0 | 0.0 | 0.0 | 0.25 | 0.00 | 1.07 | 97 | 1010.0 |
| 20260507143231 | 19 | 0 | 0.0 | 0.0 | 0.48 | 0.00 | 1.02 | 97 | 1010.0 |
| 20260507142732 | 19 | 0 | 0.0 | 0.0 | 0.20 | 0.00 | 0.99 | 97 | 1010.0 |
| 20260507142231 | 19 | 149 | 0.0 | 0.0 | 0.23 | 0.00 | 0.97 | 98 | 1010.0 |
| 20260507141733 | 19 | 44 | 1.6 | 3.2 | 0.10 | 0.00 | 0.94 | 98 | 1010.0 |
| 20260507141232 | 19 | 50 | 0.0 | 1.6 | 0.05 | 0.00 | 0.94 | 98 | 1010.0 |
| 20260507140736 | 19 | 0 | 0.0 | 0.0 | 0.05 | 0.00 | 0.91 | 98 | 1010.0 |
| 20260507140234 | 19 | 0 | 0.0 | 0.0 | 0.05 | 0.00 | 0.91 | 98 | 1010.0 |
| 20260507135732 | 19 | 0 | 0.0 | 0.0 | 0.08 | 0.00 | 0.91 | 98 | 1010.0 |
| 20260507135234 | 19 | 259 | 0.0 | 0.0 | 0.13 | 0.00 | 0.89 | 98 | 1010.0 |
| 20260507134732 | 19 | 276 | 3.2 | 4.8 | 0.13 | 0.00 | 0.86 | 98 | 1010.0 |
| 20260507134231 | 19 | 281 | 0.0 | 1.6 | 0.08 | 0.00 | 0.86 | 98 | 1010.0 |
| 20260507133732 | 18 | 0 | 0.0 | 0.0 | 0.10 | 0.00 | 0.84 | 98 | 1010.0 |
| 20260507133232 | 18 | 291 | 0.0 | 3.2 | 0.13 | 0.00 | 0.84 | 98 | 1010.0 |
| 20260507132734 | 18 | 285 | 3.2 | 4.8 | 0.03 | 0.00 | 0.81 | 98 | 1011.0 |
| 20260507132232 | 18 | 239 | 1.6 | 3.2 | 0.05 | 0.00 | 0.81 | 98 | 1011.0 |
| 20260507131337 | 18 | 267 | 3.2 | 3.2 | 0.00 | 0.00 | 0.81 | 98 | 1010.0 |
| 20260507130733 | 18 | 291 | 1.6 | 3.2 | 0.00 | 0.00 | 0.81 | 98 | 1010.0 |
| 20260507130232 | 18 | 0 | 0.0 | 0.0 | 0.03 | 0.00 | 0.76 | 98 | 1010.0 |
| 20260507125733 | 18 | 263 | 0.0 | 0.0 | 0.05 | 0.00 | 0.76 | 98 | 1010.0 |
| 20260507125233 | 18 | 0 | 0.0 | 0.0 | 0.05 | 0.00 | 0.76 | 98 | 1010.0 |
| 20260507124734 | 18 | 0 | 0.0 | 0.0 | 0.08 | 0.00 | 0.76 | 98 | 1010.0 |
| 20260507124232 | 18 | 293 | 0.0 | 0.0 | 0.03 | 0.00 | 0.76 | 98 | 1010.0 |
| 20260507123734 | 18 | 0 | 0.0 | 0.0 | 0.05 | 0.00 | 0.74 | 98 | 1011.0 |
| 20260507123232 | 18 | 0 | 0.0 | 0.0 | 0.00 | 0.00 | 0.74 | 98 | 1011.0 |
| 20260507122732 | 18 | 0 | 0.0 | 0.0 | 0.00 | 0.00 | 0.74 | 98 | 1010.0 |
| 20260507122233 | 18 | 0 | 0.0 | 0.0 | 0.00 | 0.00 | 0.76 | 98 | 1010.0 |
| 20260507121732 | 18 | 0 | 0.0 | 0.0 | 0.00 | 0.00 | 0.76 | 98 | 1010.0 |
| 20260507121232 | 18 | 0 | 0.0 | 0.0 | 0.00 | 0.00 | 0.76 | 98 | 1010.0 |
| 20260507120731 | 18 | 0 | 0.0 | 0.0 | 0.00 | 0.00 | 0.76 | 98 | 1010.0 |
| 20260507120234 | 18 | 0 | 0.0 | 0.0 | 0.00 | 0.00 | 0.94 | 98 | 1010.0 |
| 20260507115731 | 18 | 0 | 0.0 | 0.0 | 0.00 | 0.00 | 0.94 | 98 | 1010.0 |
| 20260507115231 | 18 | 0 | 0.0 | 0.0 | 0.00 | 0.00 | 0.94 | 98 | 1010.0 |
| 20260507114732 | 18 | 0 | 0.0 | 0.0 | 0.00 | 0.00 | 0.94 | 98 | 1010.0 |
| 20260507114231 | 18 | 0 | 0.0 | 0.0 | 0.00 | 0.00 | 0.94 | 98 | 1010.0 |
| 20260507113733 | 18 | 0 | 0.0 | 0.0 | 0.00 | 0.00 | 0.94 | 98 | 1011.0 |
| 20260507113239 | 18 | 283 | 1.6 | 3.2 | 0.00 | 0.00 | 0.94 | 98 | 1011.0 |
| 20260507112731 | 18 | 0 | 0.0 | 0.0 | 0.00 | 0.00 | 0.94 | 98 | 1011.0 |
| 20260507111745 | 18 | 0 | 0.0 | 0.0 | 0.00 | 0.00 | 0.86 | 98 | 1011.0 |
| 20260507111232 | 18 | 39 | 0.0 | 0.0 | 0.00 | 0.00 | 0.86 | 98 | 1011.0 |
| 20260507110732 | 18 | 247 | 0.0 | 0.0 | 0.13 | 0.00 | 0.84 | 98 | 1011.0 |
| 20260507110233 | 18 | 0 | 0.0 | 0.0 | 0.00 | 0.00 | 0.81 | 98 | 1011.0 |
| 20260507105731 | 18 | 250 | 0.0 | 1.6 | 0.00 | 0.00 | 0.81 | 98 | 1011.0 |
| 20260507105232 | 18 | 0 | 0.0 | 0.0 | 0.03 | 0.00 | 0.81 | 98 | 1011.0 |
| 20260507104731 | 18 | 296 | 1.6 | 3.2 | 0.00 | 0.00 | 0.79 | 98 | 1010.0 |
| 20260507104232 | 18 | 316 | 1.6 | 3.2 | 0.03 | 0.00 | 0.79 | 98 | 1010.0 |
| 20260507103732 | 18 | 181 | 0.0 | 1.6 | 0.25 | 0.00 | 0.76 | 98 | 1010.0 |
| 20260507103231 | 18 | 240 | 1.6 | 3.2 | 1.52 | 0.00 | 0.66 | 98 | 1010.0 |
| 20260507102731 | 18 | 0 | 0.0 | 0.0 | 0.03 | 0.00 | 0.61 | 98 | 1010.0 |
| 20260507102233 | 18 | 297 | 0.0 | 0.0 | 0.00 | 0.00 | 0.61 | 98 | 1010.0 |
| 20260507101731 | 18 | 0 | 0.0 | 0.0 | 0.48 | 0.00 | 0.51 | 97 | 1010.0 |
| 20260507101233 | 18 | 280 | 1.6 | 3.2 | 0.30 | 0.00 | 0.46 | 97 | 1010.0 |
| 20260507100732 | 18 | 148 | 0.0 | 0.0 | 1.42 | 0.00 | 0.43 | 98 | 1010.0 |
| 20260507100232 | 18 | 264 | 0.0 | 0.0 | 0.00 | 0.00 | 0.28 | 97 | 1010.0 |
| 20260507095731 | 18 | 0 | 0.0 | 0.0 | 0.00 | 0.00 | 0.28 | 97 | 1010.0 |
| 20260507095232 | 18 | 259 | 3.2 | 4.8 | 0.00 | 0.00 | 0.28 | 97 | 1010.0 |
| 20260507094732 | 18 | 0 | 0.0 | 0.0 | 0.00 | 0.00 | 0.28 | 97 | 1010.0 |
| 20260507094231 | 18 | 0 | 0.0 | 0.0 | 0.00 | 0.00 | 0.28 | 97 | 1010.0 |
| 20260507093732 | 18 | 261 | 3.2 | 6.4 | 0.00 | 0.00 | 0.28 | 97 | 1010.0 |
| 20260507093232 | 18 | 0 | 0.0 | 0.0 | 0.00 | 0.00 | 0.28 | 97 | 1010.0 |
| 20260507092732 | 18 | 0 | 0.0 | 0.0 | 0.00 | 0.00 | 0.28 | 97 | 1010.0 |
| 20260507092232 | 18 | 0 | 0.0 | 0.0 | 0.00 | 0.00 | 0.28 | 97 | 1010.0 |
| 20260507091732 | 18 | 0 | 0.0 | 0.0 | 0.00 | 0.00 | 0.28 | 97 | 1010.0 |
| 20260507091232 | 18 | 0 | 0.0 | 0.0 | 0.00 | 0.00 | 0.28 | 97 | 1010.0 |
| 20260507090732 | 18 | 0 | 0.0 | 0.0 | 0.00 | 0.00 | 0.28 | 97 | 1010.0 |
| 20260507090232 | 18 | 259 | 0.0 | 1.6 | 0.00 | 0.00 | 0.28 | 97 | 1010.0 |
| 20260507085733 | 18 | 299 | 1.6 | 3.2 | 0.00 | 0.00 | 0.28 | 97 | 1010.0 |
| 20260507085231 | 18 | 0 | 0.0 | 0.0 | 0.00 | 0.00 | 0.28 | 97 | 1010.0 |
| 20260507084732 | 18 | 251 | 1.6 | 4.8 | 0.00 | 0.00 | 0.28 | 97 | 1011.0 |
| 20260507084234 | 18 | 258 | 1.6 | 4.8 | 0.05 | 0.00 | 0.28 | 97 | 1010.0 |
| 20260507083731 | 18 | 253 | 0.0 | 3.2 | 0.05 | 0.00 | 0.28 | 97 | 1010.0 |
| 20260507083231 | 18 | 277 | 3.2 | 9.7 | 0.10 | 0.00 | 0.25 | 97 | 1010.0 |
| 20260507082731 | 18 | 272 | 1.6 | 6.4 | 0.13 | 0.00 | 0.25 | 97 | 1011.0 |
| 20260507082233 | 18 | 255 | 1.6 | 3.2 | 0.00 | 0.00 | 0.23 | 97 | 1011.0 |
| 20260507081732 | 18 | 267 | 1.6 | 4.8 | 0.00 | 0.00 | 0.23 | 97 | 1011.0 |
| 20260507081232 | 18 | 285 | 4.8 | 6.4 | 0.00 | 0.00 | 0.23 | 97 | 1011.0 |
| 20260507080731 | 18 | 258 | 0.0 | 1.6 | 0.00 | 0.00 | 0.23 | 97 | 1011.0 |
| 20260507080232 | 18 | 253 | 0.0 | 3.2 | 0.00 | 0.00 | 0.23 | 97 | 1011.0 |
| 20260507075731 | 18 | 0 | 0.0 | 0.0 | 0.00 | 0.00 | 0.23 | 97 | 1011.0 |
| 20260507075231 | 18 | 296 | 0.0 | 1.6 | 0.00 | 0.00 | 0.23 | 97 | 1011.0 |
| 20260507074731 | 18 | 242 | 0.0 | 1.6 | 0.00 | 0.00 | 0.23 | 97 | 1011.0 |
| 20260507074232 | 18 | 0 | 0.0 | 0.0 | 0.00 | 0.00 | 0.23 | 97 | 1011.0 |
| 20260507073731 | 18 | 257 | 1.6 | 3.2 | 0.00 | 0.00 | 0.23 | 97 | 1011.0 |
| 20260507073232 | 18 | 243 | 0.0 | 1.6 | 0.00 | 0.00 | 0.23 | 97 | 1011.0 |
| 20260507072732 | 18 | 0 | 0.0 | 1.6 | 0.00 | 0.00 | 0.23 | 97 | 1011.0 |
| 20260507072231 | 18 | 0 | 0.0 | 0.0 | 0.00 | 0.00 | 0.23 | 97 | 1011.0 |
| 20260507071731 | 18 | 251 | 0.0 | 3.2 | 0.00 | 0.00 | 0.23 | 97 | 1011.0 |
| 20260507071232 | 18 | 218 | 0.0 | 1.6 | 0.00 | 0.00 | 0.23 | 97 | 1011.0 |
| 20260507070732 | 18 | 0 | 0.0 | 0.0 | 0.00 | 0.00 | 0.23 | 97 | 1011.0 |
| 20260507070231 | 18 | 0 | 0.0 | 0.0 | 0.00 | 0.00 | 0.23 | 97 | 1011.0 |
| 20260507065731 | 18 | 242 | 0.0 | 1.6 | 0.00 | 0.00 | 0.25 | 97 | 1012.0 |
| 20260507065234 | 18 | 233 | 0.0 | 1.6 | 0.00 | 0.00 | 0.25 | 97 | 1011.0 |
| 20260507064731 | 18 | 111 | 0.0 | 3.2 | 0.00 | 0.00 | 0.25 | 97 | 1011.0 |
| 20260507064232 | 18 | 0 | 0.0 | 0.0 | 0.00 | 0.00 | 0.25 | 97 | 1012.0 |
| 20260507063732 | 18 | 0 | 0.0 | 0.0 | 0.00 | 0.00 | 0.25 | 97 | 1012.0 |
| 20260507063231 | 18 | 281 | 0.0 | 3.2 | 0.00 | 0.00 | 0.25 | 97 | 1012.0 |
| 20260507062731 | 18 | 265 | 1.6 | 3.2 | 0.00 | 0.00 | 0.25 | 97 | 1012.0 |
| 20260507062231 | 18 | 279 | 3.2 | 4.8 | 0.00 | 0.00 | 0.25 | 97 | 1012.0 |
| 20260507061732 | 18 | 293 | 3.2 | 4.8 | 0.00 | 0.00 | 0.25 | 97 | 1012.0 |
| 20260507061231 | 18 | 267 | 1.6 | 3.2 | 0.00 | 0.00 | 0.25 | 97 | 1012.0 |
| 20260507060732 | 18 | 0 | 0.0 | 0.0 | 0.00 | 0.00 | 0.25 | 97 | 1011.0 |
| 20260507060232 | 18 | 0 | 0.0 | 0.0 | 0.00 | 0.00 | 0.25 | 97 | 1012.0 |
| 20260507055732 | 18 | 0 | 0.0 | 0.0 | 0.00 | 0.00 | 0.23 | 97 | 1012.0 |
| 20260507055231 | 18 | 254 | 0.0 | 1.6 | 0.00 | 0.00 | 0.23 | 97 | 1012.0 |
| 20260507054732 | 18 | 0 | 0.0 | 0.0 | 0.00 | 0.00 | 0.23 | 96 | 1012.0 |
| 20260507054232 | 18 | 0 | 0.0 | 0.0 | 0.00 | 0.00 | 0.23 | 96 | 1012.0 |
| 20260507053732 | 18 | 240 | 0.0 | 3.2 | 0.00 | 0.00 | 0.23 | 96 | 1012.0 |
| 20260507053231 | 18 | 265 | 0.0 | 3.2 | 0.00 | 0.00 | 0.23 | 96 | 1012.0 |
| 20260507052731 | 18 | 227 | 1.6 | 3.2 | 0.00 | 0.00 | 0.23 | 96 | 1012.0 |
| 20260507052232 | 18 | 62 | 1.6 | 3.2 | 0.00 | 0.00 | 0.28 | 96 | 1012.0 |
| 20260507051731 | 18 | 126 | 0.0 | 1.6 | 0.00 | 0.00 | 0.28 | 96 | 1012.0 |
| 20260507051232 | 18 | 255 | 6.4 | 6.4 | 0.36 | 0.00 | 0.28 | 96 | 1013.0 |
| 20260507050732 | 18 | 39 | 1.6 | 3.2 | 0.97 | 0.00 | 0.23 | 95 | 1012.0 |
| 20260507050232 | 18 | 121 | 3.2 | 3.2 | 0.33 | 0.00 | 0.18 | 95 | 1012.0 |
| 20260507045731 | 18 | 265 | 1.6 | 3.2 | 0.00 | 0.00 | 0.15 | 94 | 1013.0 |
| 20260507045231 | 19 | 0 | 0.0 | 0.0 | 0.08 | 0.00 | 0.15 | 94 | 1012.0 |
| 20260507044732 | 19 | 281 | 1.6 | 4.8 | 0.03 | 0.00 | 0.13 | 93 | 1012.0 |
| 20260507044231 | 19 | 276 | 6.4 | 9.7 | 0.03 | 0.00 | 0.13 | 93 | 1012.0 |
| 20260507043732 | 19 | 301 | 4.8 | 11.3 | 0.25 | 0.00 | 0.13 | 93 | 1012.0 |
| 20260507043233 | 19 | 266 | 1.6 | 4.8 | 0.61 | 0.00 | 0.10 | 91 | 1012.0 |
| 20260507042732 | 20 | 273 | 9.7 | 16.1 | 0.23 | 0.00 | 0.08 | 90 | 1013.0 |
| 20260507042231 | 20 | 270 | 12.9 | 17.7 | 0.25 | 0.00 | 0.05 | 88 | 1013.0 |
| 20260507041732 | 20 | 254 | 4.8 | 6.4 | 0.18 | 0.00 | 0.00 | 88 | 1014.0 |
| 20260507041231 | 20 | 267 | 6.4 | 16.1 | 0.03 | 0.00 | 0.00 | 88 | 1014.0 |
| 20260507040731 | 20 | 251 | 4.8 | 11.3 | 0.00 | 0.00 | 0.00 | 91 | 1014.0 |
| 20260507040234 | 20 | 257 | 4.8 | 8.0 | 0.00 | 0.00 | 0.00 | 91 | 1014.0 |
| 20260507035732 | 20 | 263 | 3.2 | 6.4 | 0.00 | 0.00 | 0.28 | 90 | 1013.0 |
| 20260507035231 | 20 | 270 | 4.8 | 8.0 | 0.18 | 0.00 | 0.28 | 91 | 1013.0 |
| 20260507034732 | 20 | 271 | 3.2 | 8.0 | 0.00 | 0.00 | 0.25 | 91 | 1013.0 |
| 20260507034232 | 20 | 300 | 3.2 | 4.8 | 0.33 | 0.00 | 0.25 | 90 | 1013.0 |
| 20260507033732 | 20 | 271 | 3.2 | 6.4 | 0.20 | 0.00 | 0.20 | 90 | 1013.0 |
| 20260507033231 | 20 | 277 | 0.0 | 1.6 | 0.00 | 0.00 | 0.20 | 90 | 1012.0 |
| 20260507032732 | 20 | 0 | 0.0 | 0.0 | 0.00 | 0.00 | 0.20 | 90 | 1012.0 |
| 20260507032232 | 20 | 0 | 0.0 | 0.0 | 0.00 | 0.00 | 0.20 | 89 | 1012.0 |
| 20260507031733 | 20 | 284 | 1.6 | 4.8 | 0.08 | 0.00 | 0.20 | 90 | 1013.0 |
| 20260507031231 | 20 | 242 | 0.0 | 1.6 | 0.00 | 0.00 | 0.18 | 90 | 1013.0 |
| 20260507030731 | 20 | 287 | 3.2 | 6.4 | 0.10 | 0.00 | 0.18 | 89 | 1013.0 |
| 20260507030232 | 20 | 278 | 0.0 | 3.2 | 0.05 | 0.00 | 0.18 | 89 | 1013.0 |